Regional Weather Roundup
Issued by NWS

Home | Current Version | Previous Version | Text Only | Print | Product List | Glossary Off
Versions: 1 2 3 4 5 6 7 8 9 10 11 12 13 14 15 16 17 18 19 20 21 22 23 24 25 26 27 28 29 30 31 32 33 34 35 36 37 38 39 40 41 42 43 44 45 46 47 48 49 50

000
ASUS43 KTOP 242359
RWRKS

WEATHER ROUNDUP FOR KANSAS
NATIONAL WEATHER SERVICE GOODLAND KS
700 PM CDT TUE APR 24 2018

NOTE:  "FAIR" INDICATES FEW OR NO CLOUDS BELOW 12,000 FEET WITH NO
SIGNIFICANT WEATHER AND/OR OBSTRUCTIONS TO VISIBILITY.

KSZ001>006-013>018-027>032-041>047-250100-
NORTHWEST KANSAS

CITY           SKY/WX    TMP DP  RH WIND       PRES   REMARKS
GOODLAND       LGT RAIN  40  35  83 N21G36    30.33R WCI  30
6HR MIN TEMP:  37; 6HR MAX TEMP:  43; 6HR PCP: TRACE;

HAYS           CLOUDY    45  41  86 N20       30.25R
HILL CITY      CLOUDY    46  41  82 N21G28    30.29S
6HR MIN TEMP:  44; 6HR MAX TEMP:  47; 6HR PCP:  0.12;

RUSSELL        CLOUDY    47  45  93 N17       30.23R
6HR MIN TEMP:  46; 6HR MAX TEMP:  50; 6HR PCP:  0.01;

$$

KSZ061>065-074>080-084>089-250100-
SOUTHWEST KANSAS

CITY           SKY/WX    TMP DP  RH WIND       PRES   REMARKS
DODGE CITY     CLOUDY    45  38  76 N17G29    30.26S
6HR MIN TEMP:  45; 6HR MAX TEMP:  49;

GARDEN CITY    CLOUDY    45  38  76 N20       30.28S
6HR MIN TEMP:  42; 6HR MAX TEMP:  45;

GREAT BEND       N/A     48  42  80 N20       30.24S
LIBERAL        CLOUDY    46  38  73 N21G26    30.28S
$$

KSZ066>073-081>083-090>101-250100-
SOUTHEAST KANSAS

CITY           SKY/WX    TMP DP  RH WIND       PRES   REMARKS
CHANUTE        PTSUNNY   75  37  25 N6        30.06S
6HR MIN TEMP:  74; 6HR MAX TEMP:  79;

COFFEYVILLE    CLOUDY    76  40  27 N6        30.05S
6HR MIN TEMP:  74; 6HR MAX TEMP:  80;

HUTCHINSON     PTSUNNY   55  47  74 N18G28    30.18R
6HR MIN TEMP:  55; 6HR MAX TEMP:  74;

MEDICINE LODGE   N/A     57  47  69 N18G33    30.18R
NEWTON         CLOUDY    58  48  69 N17G24    30.16R
PARSONS        CLOUDY    76  35  22 N7        30.06F
6HR MIN TEMP:  74; 6HR MAX TEMP:  79;

WICHITA INTL   CLOUDY    62  47  57 N24G31    30.14S
6HR MIN TEMP:  62; 6HR MAX TEMP:  78;

WICHITA JABRA  CLOUDY    61  47  59 N21G28    30.14S
6HR MIN TEMP:  61; 6HR MAX TEMP:  77;

WICHITA MCCONL CLOUDY    63  46  55 N20       30.13R
WINFIELD       CLOUDY    64  48  56 N22G28    30.12R
6HR MIN TEMP:  64; 6HR MAX TEMP:  79;

$$

KSZ007>012-019>026-033>040-048>060-102>105-250100-
NORTHEAST KANSAS

CITY           SKY/WX    TMP DP  RH WIND       PRES   REMARKS
CONCORDIA      CLOUDY    50  46  86 NW12      30.20S
6HR MIN TEMP:  49; 6HR MAX TEMP:  62; 6HR PCP:  0.04;

EMPORIA        MOSUNNY   62  45  53 NW18G29   30.12R
6HR MIN TEMP:  62; 6HR MAX TEMP:  78;

LAWRENCE       CLOUDY    67  44  43 NW20G37   30.08R
6HR MIN TEMP:  67; 6HR MAX TEMP:  80;

MANHATTAN      CLOUDY    58  48  69 VRB7      30.15R
6HR MIN TEMP:  57; 6HR MAX TEMP:  80; 6HR PCP: TRACE;

OLATHE IND     CLOUDY    70  36  28 N12       30.07R
6HR MIN TEMP:  69; 6HR MAX TEMP:  77; 6HR PCP: TRACE;

OLATHE EXE     CLOUDY    72  33  24 N9        30.06R
6HR MIN TEMP:  71; 6HR MAX TEMP:  76;

SALINA         CLOUDY    54  47  77 N17       30.20S
6HR MIN TEMP:  54; 6HR MAX TEMP:  73;

TOPEKA BILLARD CLOUDY    64  46  52 NW15G30   30.11R
6HR MIN TEMP:  64; 6HR MAX TEMP:  79;

TOPEKA FORBES  CLOUDY    65  45  48 NW17G28   30.11R
6HR MIN TEMP:  65; 6HR MAX TEMP:  79;

$$



USA.gov is the U.S. government's official web portal to all federal, state and local government web resources and services.